Location: Eaton Estates
(41.3089°N, 82.0057°W)
Time: 08:31:09
(UTC+00:00)

USA 229 - Pass Details

Date: 17 June 2021
Orbit: 956 x 1256 km, 63.5° (Epoch: 25 July)

Event Time Altitude Azimuth Distance (km) Brightness Sun altitude
Exits shadow 06:08:30 51° 162° (SSE) 1,227 3.6 -24.7°
Maximum altitude 06:09:43 60° 119° (ESE) 1,134 3.7 -24.6°
Drops below altitude 10° 06:16:18 10° 41° (NE) 2,870 6.8 -24.4°
Sets 06:19:03 0° 38° (NE) 3,872 7.7 -24.3°
